Tracking 27112 objects as of 28-Mar-2023
HD Live streaming from Space Station
objects crossing your sky now

TVSAT 2

Track TVSAT 2 now!
TVSAT 2 is classified as:


NORAD ID: 20168
Int'l Code: 1989-062A
Perigee: 35,896.5 km
Apogee: 35,928.4 km
Inclination: 14.7 °
Period: 1,442.2 minutes
Semi major axis: 42283 km
RCS: 2.0976 m2 (large)
Launch date: August 8, 1989
Source: Germany (GER)
Launch site: FRENCH GUIANA (FRGUI)
Your satellite tracking list
Your tracking list is empty




NASA's NSSDC Master Catalog

Two Line Element Set (TLE):
1 20168U 89062A   23086.49828142  .00000077  00000-0  00000+0 0  9992
2 20168  14.7134   4.7278 0003775 109.4027  95.2888  0.99849932122730
Source of the keplerian elements: AFSPC